TimePST,TemperatureF,Dew PointF,Humidity,Sea Level PressureIn,VisibilityMPH,Wind Direction,Wind SpeedMPH,Gust SpeedMPH,PrecipitationIn,Events,Conditions,WindDirDegrees,DateUTC
12:56 AM,28.9,21.9,75,30.25,10.0,North,5.8,-,N/A,,Overcast,350,2013-01-24 08:56:00
1:56 AM,28.9,24.1,82,30.27,9.0,WSW,3.5,-,0.00,,Overcast,240,2013-01-24 09:56:00
2:56 AM,32.0,27.0,82,30.25,10.0,West,6.9,-,0.00,,Overcast,270,2013-01-24 10:56:00
3:56 AM,30.0,27.0,88,30.25,7.0,Calm,Calm,-,0.00,,Overcast,0,2013-01-24 11:56:00
4:32 AM,30.2,28.4,93,30.20,6.0,NNE,3.5,-,0.01,Rain,Light Freezing Rain,30,2013-01-24 12:32:00
4:53 AM,30.2,28.4,93,30.20,7.0,Calm,Calm,-,0.01,,Overcast,0,2013-01-24 12:53:00
4:56 AM,30.9,28.9,92,30.26,8.0,Calm,Calm,-,0.01,,Overcast,0,2013-01-24 12:56:00
5:56 AM,30.9,28.9,92,30.26,7.0,SE,4.6,-,0.01,,Overcast,130,2013-01-24 13:56:00
6:56 AM,32.0,30.0,92,30.27,6.0,East,4.6,-,0.00,,Overcast,100,2013-01-24 14:56:00
7:56 AM,33.1,30.9,92,30.27,4.0,Calm,Calm,-,0.00,Rain,Light Rain,0,2013-01-24 15:56:00
8:56 AM,34.0,30.9,89,30.28,7.0,ENE,4.6,-,0.01,Rain,Light Rain,70,2013-01-24 16:56:00
9:56 AM,35.1,30.9,85,30.31,9.0,NE,4.6,-,0.00,,Overcast,50,2013-01-24 17:56:00
10:56 AM,37.9,30.9,76,30.29,10.0,NE,6.9,-,0.00,,Overcast,50,2013-01-24 18:56:00
11:56 AM,39.0,32.0,76,30.27,10.0,ENE,5.8,-,N/A,,Overcast,70,2013-01-24 19:56:00
12:56 PM,39.0,32.0,76,30.26,10.0,NE,5.8,-,N/A,,Overcast,40,2013-01-24 20:56:00
1:56 PM,39.0,32.0,76,30.25,10.0,NNE,8.1,-,N/A,,Overcast,30,2013-01-24 21:56:00
2:56 PM,39.9,32.0,73,30.25,10.0,NE,5.8,-,N/A,,Overcast,40,2013-01-24 22:56:00
3:56 PM,37.9,32.0,79,30.25,10.0,NE,3.5,-,N/A,,Mostly Cloudy,50,2013-01-24 23:56:00
4:56 PM,36.0,30.9,82,30.27,10.0,Calm,Calm,-,N/A,,Scattered Clouds,0,2013-01-25 00:56:00
5:56 PM,34.0,30.9,89,30.28,10.0,NNE,4.6,-,N/A,,Overcast,20,2013-01-25 01:56:00
6:56 PM,34.0,30.9,89,30.29,10.0,ENE,4.6,-,N/A,,Overcast,60,2013-01-25 02:56:00
7:56 PM,33.1,30.9,92,30.29,10.0,Calm,Calm,-,N/A,,Overcast,0,2013-01-25 03:56:00
8:56 PM,35.1,30.9,85,30.28,10.0,Calm,Calm,-,N/A,,Overcast,0,2013-01-25 04:56:00
9:56 PM,33.1,30.9,92,30.29,9.0,ENE,4.6,-,N/A,,Clear,60,2013-01-25 05:56:00
10:56 PM,30.0,28.9,96,30.30,6.0,NNW,3.5,-,N/A,,Clear,340,2013-01-25 06:56:00
11:56 PM,30.9,30.0,96,30.29,5.0,Calm,Calm,-,N/A,,Overcast,0,2013-01-25 07:56:00